Location: Haieshausen
(51.8387°N, 9.9720°E)
Time: 04:35:19
(UTC+00:00)

Abrixas rocket - Pass Details

Date: 14 July 2020
Orbit: 338 x 346 km, 48.4° (Epoch: 10 August)

Event Time Altitude Azimuth Distance (km) Brightness Sun altitude
Exits shadow 01:34:19 13° 254° (WSW) 1,104 4.0 -11.4°
Maximum altitude 01:36:25 31° 194° (SSW) 630 2.6 -11.2°
Drops below altitude 10° 01:38:59 10° 130° (SE) 1,279 4.6 -11.0°
Sets 01:41:06 0° 119° (ESE) 2,116 5.9 -10.8°
